Location: Chenereilles
(45.4866°N, 4.0790°E)
Time: 13:15:40
(UTC+00:00)

Cosmos 2227 Rocket - Pass Details

Date: 12 November 2019
Orbit: 838 x 846 km, 71.0° (Epoch: 12 December)

Event Time Altitude Azimuth Distance (km) Brightness Sun altitude
Rises 17:38:45 0° 336° (NNW) 3,416 5.5 -14.4°
Reaches altitude 10° 17:41:15 10° 340° (NNW) 2,476 4.7 -14.9°
Maximum altitude 17:46:52 59° 60° (ENE) 972 2.2 -15.8°
Drops below altitude 10° 17:52:26 10° 140° (SE) 2,457 4.3 -16.8°
Enters shadow 17:54:43 - 144° (SE) 3,314 5.0 -17.2°
